Location: Beuvrequen
(50.8014°N, 1.6652°E)
Time: 03:44:47
(UTC+00:00)

Iridium 4 Rocket - Pass Details

Date: 16 October 2021
Orbit: 586 x 903 km, 86.9° (Epoch: 28 November)

Event Time Altitude Azimuth Distance (km) Brightness Sun altitude
Rises 17:44:28 0° 6° (N) 2,864 6.4 -8.0°
Reaches altitude 10° 17:46:57 10° 20° (NNE) 1,983 5.4 -8.4°
Maximum altitude 17:50:35 25° 77° (ENE) 1,279 4.1 -8.9°
Drops below altitude 10° 17:54:24 10° 133° (SE) 2,092 5.4 -9.5°
Sets 17:57:04 0° 146° (SSE) 3,057 6.3 -10.0°
